| time (UTC) | temp F | wind direction | speed knots | gust knots | rain 1hr in | rain 24hr in | rain mn in | humidity % | barometer mb |
| 20260503200210 | 54 | 36 | 2.6 | 2.6 | 0.00 | 0.00 | 0.00 | 40 | 1012.4 |
| 20260503195707 | 54 | 226 | 2.6 | 4.3 | 0.00 | 0.00 | 0.00 | 41 | 1012.4 |
| 20260503195204 | 54 | 338 | 1.7 | 5.2 | 0.00 | 0.00 | 0.00 | 39 | 1012.6 |
| 20260503194701 | 54 | 14 | 0.9 | 1.7 | 0.00 | 0.00 | 0.00 | 41 | 1012.5 |
| 20260503194156 | 54 | 174 | 4.3 | 6.1 | 0.00 | 0.00 | 0.00 | 40 | 1012.3 |
| 20260503193653 | 54 | 144 | 1.7 | 4.3 | 0.00 | 0.00 | 0.00 | 40 | 1012.8 |
| 20260503193149 | 54 | 343 | 2.6 | 5.2 | 0.00 | 0.00 | 0.00 | 40 | 1012.7 |
| 20260503192645 | 55 | 86 | 4.3 | 6.1 | 0.00 | 0.00 | 0.00 | 39 | 1012.8 |
| 20260503192141 | 55 | 186 | 3.5 | 4.3 | 0.00 | 0.00 | 0.00 | 41 | 1013.1 |
| 20260503191638 | 54 | 184 | 6.1 | 7.0 | 0.00 | 0.00 | 0.00 | 40 | 1013.1 |
| 20260503191135 | 54 | 111 | 2.6 | 4.3 | 0.00 | 0.00 | 0.00 | 41 | 1013.2 |
| 20260503190631 | 55 | 195 | 5.2 | 7.0 | 0.00 | 0.00 | 0.00 | 44 | 1013.1 |
| 20260503190128 | 55 | 183 | 2.6 | 6.1 | 0.00 | 0.00 | 0.00 | 40 | 1013.2 |
| 20260503185625 | 54 | 176 | 2.6 | 4.3 | 0.00 | 0.00 | 0.00 | 42 | 1013.3 |
| 20260503185120 | 54 | 82 | 2.6 | 2.6 | 0.00 | 0.00 | 0.00 | 42 | 1013.2 |
| 20260503184615 | 53 | 87 | 4.3 | 6.1 | 0.00 | 0.00 | 0.00 | 40 | 1013.3 |
| 20260503184112 | 52 | 186 | 7.0 | 8.7 | 0.00 | 0.00 | 0.00 | 41 | 1013.5 |
| 20260503183609 | 53 | 143 | 2.6 | 4.3 | 0.00 | 0.00 | 0.00 | 40 | 1013.5 |
| 20260503183106 | 53 | 109 | 2.6 | 2.6 | 0.00 | 0.00 | 0.00 | 44 | 1013.5 |
| 20260503182605 | 53 | 300 | 7.0 | 7.0 | 0.00 | 0.00 | 0.00 | 41 | 1013.7 |
| 20260503182102 | 52 | 113 | 2.6 | 2.6 | 0.00 | 0.00 | 0.00 | 42 | 1013.6 |
| 20260503181559 | 52 | 357 | 7.8 | 8.7 | 0.00 | 0.00 | 0.00 | 40 | 1013.8 |
| 20260503181055 | 52 | 32 | 2.6 | 4.3 | 0.00 | 0.00 | 0.00 | 41 | 1013.7 |
| 20260503180553 | 52 | 354 | 4.3 | 5.2 | 0.00 | 0.00 | 0.00 | 40 | 1013.5 |
| 20260503180050 | 52 | 164 | 0.9 | 1.7 | 0.00 | 0.00 | 0.00 | 40 | 1013.7 |
| 20260503175547 | 53 | 20 | 6.1 | 7.8 | 0.00 | 0.00 | 0.00 | 39 | 1013.7 |
| 20260503175044 | 54 | 4 | 1.7 | 2.6 | 0.00 | 0.00 | 0.00 | 39 | 1013.8 |
| 20260503174541 | 52 | 189 | 3.5 | 4.3 | 0.00 | 0.00 | 0.00 | 39 | 1013.7 |
| 20260503174038 | 53 | 214 | 9.6 | 13.9 | 0.00 | 0.00 | 0.00 | 42 | 1013.9 |
| 20260503173533 | 52 | 137 | 0.9 | 1.7 | 0.00 | 0.00 | 0.00 | 43 | 1013.9 |
| 20260503173029 | 53 | 18 | 4.3 | 6.1 | 0.00 | 0.00 | 0.00 | 39 | 1014.1 |
| 20260503172521 | 54 | 180 | 4.3 | 6.1 | 0.00 | 0.00 | 0.00 | 38 | 1013.9 |
| 20260503172018 | 51 | 289 | 5.2 | 7.8 | 0.00 | 0.00 | 0.00 | 41 | 1013.8 |
| 20260503171515 | 51 | 282 | 6.1 | 7.0 | 0.00 | 0.00 | 0.00 | 39 | 1013.9 |
| 20260503171012 | 52 | 353 | 7.0 | 7.8 | 0.00 | 0.00 | 0.00 | 43 | 1013.9 |
| 20260503170508 | 50 | 189 | 5.2 | 6.1 | 0.00 | 0.00 | 0.00 | 42 | 1014.0 |
| 20260503150900 | 48 | 299 | 4.3 | 6.1 | 0.00 | 0.00 | 0.00 | 46 | 1014.8 |
| 20260503150357 | 47 | 271 | 2.6 | 4.3 | 0.00 | 0.00 | 0.00 | 49 | 1014.9 |
| 20260503131250 | 42 | 111 | 1.7 | 1.7 | 0.00 | 0.00 | 0.00 | 64 | 1015.3 |
| 20260503130748 | 42 | 353 | 4.3 | 6.1 | 0.00 | 0.00 | 0.00 | 66 | 1015.5 |
| 20260503130246 | 42 | 305 | 2.6 | 4.3 | 0.00 | 0.00 | 0.00 | 67 | 1015.6 |
| 20260503120211 | 32 | 181 | 1.7 | 1.7 | 0.00 | 0.00 | 0.00 | 90 | 1015.6 |
| 20260503110638 | 26 | 205 | 0.0 | 0.0 | 0.00 | 0.00 | 0.00 | 98 | 1015.3 |
| 20260503110136 | 26 | 207 | 0.0 | 0.0 | 0.00 | 0.00 | 0.00 | 98 | 1015.0 |
| 20260503081446 | 27 | 251 | 0.0 | 0.0 | 0.00 | 0.00 | 0.00 | 95 | 1014.4 |
| 20260503080943 | 28 | 245 | 0.0 | 0.0 | 0.00 | 0.00 | 0.00 | 95 | 1014.5 |
| 20260503080439 | 28 | 276 | 0.0 | 0.9 | 0.00 | 0.00 | 0.00 | 95 | 1014.5 |
| 20260503072916 | 29 | 269 | 0.0 | 0.9 | 0.00 | 0.00 | 0.00 | 93 | 1014.3 |
| 20260503072413 | 29 | 285 | 0.0 | 0.9 | 0.00 | 0.00 | 0.00 | 93 | 1014.0 |
| 20260503071910 | 29 | 330 | 0.9 | 0.9 | 0.00 | 0.00 | 0.00 | 92 | 1014.2 |
| 20260503071407 | 29 | 264 | 0.0 | 0.0 | 0.00 | 0.00 | 0.00 | 92 | 1013.9 |
| 20260503070903 | 30 | 267 | 0.9 | 0.9 | 0.00 | 0.00 | 0.00 | 91 | 1013.9 |
| 20260503070400 | 30 | 24 | 0.9 | 0.9 | 0.00 | 0.00 | 0.00 | 90 | 1014.0 |
| 20260503060326 | 32 | 242 | 0.0 | 0.0 | 0.00 | 0.00 | 0.00 | 85 | 1014.2 |
| 20260503054814 | 32 | 222 | 0.0 | 0.0 | 0.00 | 0.00 | 0.00 | 84 | 1014.3 |
| 20260503054310 | 33 | 221 | 0.0 | 0.0 | 0.00 | 0.00 | 0.00 | 83 | 1014.3 |
| 20260503053808 | 33 | 239 | 0.0 | 0.0 | 0.00 | 0.00 | 0.00 | 83 | 1014.3 |
| 20260503053306 | 33 | 200 | 0.0 | 0.0 | 0.00 | 0.00 | 0.00 | 83 | 1014.2 |
| 20260503052802 | 32 | 202 | 0.0 | 0.0 | 0.00 | 0.00 | 0.00 | 82 | 1014.3 |
| 20260503052259 | 32 | 220 | 0.0 | 0.0 | 0.00 | 0.00 | 0.00 | 81 | 1014.2 |
| 20260503051755 | 33 | 220 | 0.0 | 0.0 | 0.00 | 0.00 | 0.00 | 80 | 1014.4 |
| 20260503051252 | 33 | 238 | 0.0 | 0.0 | 0.00 | 0.00 | 0.00 | 79 | 1014.5 |
| 20260503050748 | 33 | 261 | 0.0 | 0.0 | 0.00 | 0.00 | 0.00 | 78 | 1014.4 |
| 20260503050245 | 33 | 234 | 0.0 | 0.0 | 0.00 | 0.00 | 0.00 | 78 | 1014.6 |
| 20260503045742 | 34 | 242 | 0.0 | 0.0 | 0.00 | 0.00 | 0.00 | 77 | 1014.5 |
| 20260503045234 | 34 | 300 | 0.9 | 0.9 | 0.00 | 0.00 | 0.00 | 77 | 1014.7 |
| 20260503044730 | 34 | 297 | 0.9 | 0.9 | 0.00 | 0.00 | 0.00 | 77 | 1014.8 |
| 20260503044227 | 34 | 231 | 0.0 | 0.0 | 0.00 | 0.00 | 0.00 | 76 | 1014.7 |
| 20260503043724 | 34 | 241 | 0.0 | 0.0 | 0.00 | 0.00 | 0.00 | 76 | 1014.8 |
| 20260503043222 | 34 | 201 | 0.0 | 0.0 | 0.00 | 0.00 | 0.00 | 76 | 1014.8 |
| 20260503042717 | 34 | 236 | 0.0 | 0.0 | 0.00 | 0.00 | 0.00 | 75 | 1014.7 |
| 20260503042214 | 35 | 229 | 0.0 | 0.0 | 0.00 | 0.00 | 0.00 | 75 | 1014.6 |
| 20260503041710 | 35 | 7 | 0.9 | 0.9 | 0.00 | 0.00 | 0.00 | 74 | 1014.7 |
| 20260503041208 | 35 | 251 | 0.0 | 0.0 | 0.00 | 0.00 | 0.00 | 75 | 1014.9 |
| 20260503040705 | 35 | 247 | 0.0 | 0.9 | 0.00 | 0.00 | 0.00 | 76 | 1014.8 |
| 20260503040203 | 35 | 273 | 0.9 | 0.9 | 0.00 | 0.00 | 0.00 | 75 | 1014.7 |
| 20260503035659 | 35 | 349 | 0.9 | 0.9 | 0.00 | 0.00 | 0.00 | 75 | 1014.7 |
| 20260503035157 | 34 | 214 | 0.0 | 0.9 | 0.00 | 0.00 | 0.00 | 77 | 1014.7 |
| 20260503034654 | 34 | 228 | 0.0 | 0.0 | 0.00 | 0.00 | 0.00 | 77 | 1014.9 |
| 20260503034151 | 34 | 187 | 0.0 | 0.0 | 0.00 | 0.00 | 0.00 | 77 | 1014.8 |
| 20260503033648 | 34 | 202 | 0.0 | 0.0 | 0.00 | 0.00 | 0.00 | 77 | 1014.8 |
| 20260503033146 | 34 | 250 | 0.0 | 0.9 | 0.00 | 0.00 | 0.00 | 78 | 1014.8 |
| 20260503032644 | 34 | 335 | 0.9 | 1.7 | 0.00 | 0.00 | 0.00 | 76 | 1014.9 |
| 20260503032143 | 34 | 240 | 0.0 | 0.0 | 0.00 | 0.00 | 0.00 | 79 | 1014.9 |
| 20260503031639 | 34 | 160 | 0.0 | 0.9 | 0.00 | 0.00 | 0.00 | 77 | 1014.7 |
| 20260503031137 | 34 | 206 | 0.0 | 0.0 | 0.00 | 0.00 | 0.00 | 76 | 1014.9 |
| 20260503030633 | 34 | 205 | 0.0 | 0.0 | 0.00 | 0.00 | 0.00 | 75 | 1015.0 |
| 20260503030130 | 35 | 272 | 0.0 | 0.9 | 0.00 | 0.00 | 0.00 | 77 | 1014.8 |
| 20260503025626 | 35 | 223 | 0.0 | 0.0 | 0.00 | 0.00 | 0.00 | 75 | 1014.9 |
| 20260503025125 | 35 | 198 | 0.0 | 0.0 | 0.00 | 0.00 | 0.00 | 75 | 1014.9 |
| 20260503024621 | 35 | 196 | 0.0 | 0.0 | 0.00 | 0.00 | 0.00 | 75 | 1014.7 |
| 20260503024118 | 35 | 215 | 0.0 | 0.0 | 0.00 | 0.00 | 0.00 | 74 | 1015.0 |
| 20260503023615 | 36 | 225 | 0.0 | 0.0 | 0.00 | 0.00 | 0.00 | 72 | 1014.8 |
| 20260503023112 | 35 | 278 | 0.0 | 0.9 | 0.00 | 0.00 | 0.00 | 72 | 1014.9 |
| 20260503022607 | 35 | 216 | 0.0 | 0.9 | 0.00 | 0.00 | 0.00 | 74 | 1015.0 |
| 20260503022102 | 35 | 272 | 0.0 | 0.9 | 0.00 | 0.00 | 0.00 | 72 | 1014.9 |
| 20260503021600 | 36 | 248 | 0.0 | 0.9 | 0.00 | 0.00 | 0.00 | 74 | 1015.0 |
| 20260503021056 | 36 | 37 | 0.0 | 0.9 | 0.00 | 0.00 | 0.00 | 72 | 1014.9 |
| 20260503020553 | 36 | 253 | 0.0 | 0.0 | 0.00 | 0.00 | 0.00 | 72 | 1014.8 |
| 20260503020050 | 36 | 188 | 0.0 | 0.0 | 0.00 | 0.00 | 0.00 | 73 | 1014.7 |
| 20260503015547 | 37 | 174 | 0.0 | 0.0 | 0.00 | 0.00 | 0.00 | 70 | 1014.7 |
| 20260503015045 | 37 | 204 | 0.0 | 0.0 | 0.00 | 0.00 | 0.00 | 72 | 1014.7 |
| 20260503014540 | 37 | 292 | 0.9 | 0.9 | 0.00 | 0.00 | 0.00 | 67 | 1014.8 |
| 20260503014038 | 37 | 188 | 0.0 | 0.0 | 0.00 | 0.00 | 0.00 | 72 | 1014.8 |
| 20260503013535 | 38 | 218 | 0.0 | 0.0 | 0.00 | 0.00 | 0.00 | 68 | 1014.6 |
| 20260503013033 | 38 | 159 | 0.9 | 0.9 | 0.00 | 0.00 | 0.00 | 71 | 1014.9 |
| 20260503012530 | 38 | 251 | 0.0 | 0.9 | 0.00 | 0.00 | 0.00 | 64 | 1014.8 |
| 20260503012026 | 37 | 337 | 2.6 | 2.6 | 0.00 | 0.00 | 0.00 | 69 | 1014.8 |
| 20260503011523 | 37 | 201 | 0.0 | 0.0 | 0.00 | 0.00 | 0.00 | 73 | 1014.6 |
| 20260503011021 | 37 | 207 | 0.0 | 0.0 | 0.00 | 0.00 | 0.00 | 72 | 1014.7 |
| 20260503010516 | 38 | 209 | 0.0 | 0.0 | 0.00 | 0.00 | 0.00 | 70 | 1014.6 |
| 20260503010015 | 38 | 185 | 0.0 | 0.9 | 0.00 | 0.00 | 0.00 | 66 | 1014.6 |
| 20260503005511 | 38 | 208 | 0.0 | 0.0 | 0.00 | 0.00 | 0.00 | 64 | 1014.6 |
| 20260503005009 | 38 | 248 | 0.0 | 0.0 | 0.00 | 0.00 | 0.00 | 70 | 1014.5 |
| 20260503004504 | 38 | 208 | 0.9 | 0.9 | 0.00 | 0.00 | 0.00 | 69 | 1014.6 |
| 20260503004003 | 38 | 246 | 0.0 | 0.9 | 0.00 | 0.00 | 0.00 | 66 | 1014.3 |
| 20260503003459 | 39 | 244 | 0.0 | 0.0 | 0.00 | 0.00 | 0.00 | 64 | 1014.2 |
| 20260503002956 | 39 | 340 | 0.9 | 1.7 | 0.00 | 0.00 | 0.00 | 61 | 1014.1 |
| 20260503002453 | 40 | 342 | 1.7 | 1.7 | 0.00 | 0.00 | 0.00 | 61 | 1014.2 |
| 20260503001949 | 40 | 315 | 1.7 | 1.7 | 0.00 | 0.00 | 0.00 | 60 | 1014.3 |
| 20260503001446 | 40 | 315 | 1.7 | 1.7 | 0.00 | 0.00 | 0.00 | 60 | 1014.2 |
| 20260503000944 | 40 | 342 | 2.6 | 5.2 | 0.00 | 0.00 | 0.00 | 61 | 1014.0 |
| 20260503000441 | 40 | 335 | 2.6 | 4.3 | 0.00 | 0.00 | 0.00 | 60 | 1014.1 |
| 20260502235938 | 40 | 332 | 3.5 | 5.2 | 0.00 | 0.00 | 0.00 | 60 | 1014.1 |
| 20260502235435 | 40 | 0 | 3.5 | 4.3 | 0.00 | 0.00 | 0.00 | 60 | 1014.2 |
| 20260502234932 | 40 | 332 | 3.5 | 5.2 | 0.00 | 0.00 | 0.00 | 60 | 1014.1 |
| 20260502234429 | 40 | 308 | 0.9 | 1.7 | 0.00 | 0.00 | 0.00 | 62 | 1014.1 |
| 20260502233926 | 40 | 353 | 1.7 | 1.7 | 0.00 | 0.00 | 0.00 | 62 | 1014.0 |
| 20260502233421 | 40 | 327 | 0.9 | 1.7 | 0.00 | 0.00 | 0.00 | 65 | 1014.1 |
| 20260502232918 | 40 | 177 | 0.9 | 0.9 | 0.00 | 0.00 | 0.00 | 72 | 1013.9 |
| 20260502232414 | 40 | 235 | 0.0 | 0.9 | 0.00 | 0.00 | 0.00 | 69 | 1014.0 |
| 20260502231912 | 40 | 241 | 0.0 | 0.0 | 0.00 | 0.00 | 0.00 | 69 | 1014.0 |
| 20260502231409 | 40 | 237 | 0.0 | 0.9 | 0.00 | 0.00 | 0.00 | 66 | 1014.0 |
| 20260502230907 | 40 | 280 | 1.7 | 1.7 | 0.00 | 0.00 | 0.00 | 66 | 1014.1 |
| 20260502230405 | 40 | 332 | 1.7 | 1.7 | 0.00 | 0.00 | 0.00 | 68 | 1014.0 |
| 20260502225902 | 40 | 286 | 3.5 | 4.3 | 0.00 | 0.00 | 0.00 | 67 | 1013.7 |
| 20260502225358 | 41 | 22 | 0.9 | 0.9 | 0.00 | 0.00 | 0.00 | 67 | 1013.9 |
| 20260502224855 | 41 | 0 | 1.7 | 2.6 | 0.00 | 0.00 | 0.00 | 67 | 1014.0 |
| 20260502224351 | 41 | 314 | 1.7 | 1.7 | 0.00 | 0.00 | 0.00 | 69 | 1013.7 |
| 20260502223849 | 41 | 308 | 0.9 | 1.7 | 0.00 | 0.00 | 0.00 | 68 | 1013.8 |
| 20260502223347 | 41 | 26 | 0.9 | 2.6 | 0.00 | 0.00 | 0.00 | 68 | 1013.9 |
| 20260502222844 | 41 | 208 | 0.0 | 0.0 | 0.00 | 0.00 | 0.00 | 68 | 1013.8 |
| 20260502222342 | 42 | 346 | 2.6 | 4.3 | 0.00 | 0.00 | 0.00 | 66 | 1013.8 |
| 20260502221837 | 42 | 30 | 2.6 | 2.6 | 0.00 | 0.00 | 0.00 | 66 | 1013.7 |
| 20260502221334 | 42 | 30 | 2.6 | 2.6 | 0.00 | 0.00 | 0.00 | 66 | 1013.7 |
| 20260502220831 | 42 | 71 | 1.7 | 2.6 | 0.00 | 0.00 | 0.00 | 65 | 1013.7 |
| 20260502220327 | 42 | 56 | 2.6 | 4.3 | 0.00 | 0.00 | 0.00 | 64 | 1013.9 |
| 20260502215823 | 42 | 20 | 1.7 | 2.6 | 0.00 | 0.00 | 0.00 | 64 | 1013.7 |
| 20260502215321 | 42 | 3 | 1.7 | 1.7 | 0.00 | 0.00 | 0.00 | 64 | 1013.8 |
| 20260502214818 | 42 | 357 | 4.3 | 7.0 | 0.00 | 0.00 | 0.00 | 64 | 1013.5 |
| 20260502214315 | 42 | 242 | 0.0 | 0.0 | 0.00 | 0.00 | 0.00 | 65 | 1013.8 |
| 20260502213812 | 42 | 203 | 1.7 | 1.7 | 0.00 | 0.00 | 0.00 | 66 | 1013.8 |
| 20260502213309 | 42 | 144 | 0.9 | 1.7 | 0.00 | 0.00 | 0.00 | 65 | 1013.7 |
| 20260502212808 | 42 | 118 | 1.7 | 2.6 | 0.00 | 0.00 | 0.00 | 67 | 1013.6 |
| 20260502212306 | 42 | 306 | 6.1 | 7.0 | 0.00 | 0.00 | 0.00 | 66 | 1013.8 |
| 20260502211802 | 43 | 40 | 1.7 | 2.6 | 0.00 | 0.00 | 0.00 | 66 | 1013.7 |
| 20260502211258 | 42 | 231 | 0.0 | 0.0 | 0.00 | 0.00 | 0.00 | 65 | 1013.6 |
| 20260502210755 | 42 | 349 | 7.8 | 15.6 | 0.00 | 0.00 | 0.00 | 65 | 1013.6 |
| 20260502210253 | 42 | 276 | 2.6 | 4.3 | 0.00 | 0.00 | 0.00 | 67 | 1013.6 |
| 20260502205750 | 42 | 356 | 3.5 | 4.3 | 0.00 | 0.00 | 0.00 | 67 | 1013.7 |
| 20260502205246 | 42 | 326 | 2.6 | 7.0 | 0.00 | 0.00 | 0.00 | 66 | 1013.6 |
| 20260502204743 | 42 | 46 | 7.8 | 13.9 | 0.00 | 0.00 | 0.00 | 65 | 1013.4 |
| 20260502204240 | 42 | 335 | 2.6 | 4.3 | 0.00 | 0.00 | 0.00 | 66 | 1013.6 |
| 20260502203732 | 43 | 324 | 2.6 | 2.6 | 0.00 | 0.00 | 0.00 | 67 | 1013.5 |
| 20260502203230 | 42 | 134 | 0.0 | 0.9 | 0.00 | 0.00 | 0.00 | 67 | 1013.5 |
| 20260502202723 | 42 | 332 | 9.6 | 13.0 | 0.00 | 0.00 | 0.00 | 67 | 1013.6 |
| 20260502202222 | 42 | 334 | 7.8 | 9.6 | 0.00 | 0.00 | 0.00 | 66 | 1013.5 |
| 20260502201719 | 43 | 353 | 3.5 | 4.3 | 0.00 | 0.00 | 0.00 | 67 | 1013.7 |
| 20260502201216 | 43 | 277 | 3.5 | 4.3 | 0.00 | 0.00 | 0.00 | 67 | 1013.5 |
| 20260502200712 | 42 | 345 | 2.6 | 2.6 | 0.00 | 0.00 | 0.00 | 68 | 1013.6 |